EW5523 Weather Reports


Display with metric or nautical units.
time (UTC)temp
F
wind
direction
speed
MPH
gust
MPH
rain 1hr
in
rain 24hr
in
rain mn
in
humidity
%
barometer
mb
20190117093116 25 293 2.0 12.0 0.00 0.00 0.00 86 1003.4
20190117091637 25 283 6.0 13.0 0.00 0.00 0.00 87 1003.0
20190117090058 26 262 7.0 11.0 0.00 0.00 0.00 89 1002.7
20190117084618 26 295 3.0 10.0 0.00 0.00 0.00 92 1002.4
20190117083118 26 233 1.0 4.0 0.00 0.00 0.00 92 1002.2
20190117081604 26 264 0.0 6.0 0.00 0.00 0.00 92 1002.2
20190117080041 25 310 4.0 8.0 0.00 0.00 0.00 93 1002.0
20190117074541 25 251 1.0 6.0 0.00 0.00 0.00 93 1001.6
20190117073037 25 177 2.0 8.0 0.00 0.00 0.00 93 1001.5
20190117071530 25 212 3.0 11.0 0.00 0.00 0.00 93 1001.4
20190117070047 25 167 4.0 11.0 0.00 0.00 0.00 93 1001.2
20190117064547 24 174 4.0 12.0 0.00 0.00 0.00 93 1001.1
20190117063024 24 173 4.0 15.0 0.00 0.00 0.00 93 1000.8
20190117061540 24 185 4.0 9.0 0.00 0.00 0.00 93 1000.6
20190117060054 24 158 4.0 8.0 0.00 0.00 0.00 93 1000.7
20190117054526 24 163 3.0 8.0 0.00 0.00 0.00 93 1000.6
20190117053017 24 163 4.0 9.0 0.00 0.00 0.00 93 1000.4
20190117051535 24 188 3.0 13.0 0.00 0.00 0.00 93 1000.3
20190117050032 24 180 6.0 11.0 0.00 0.00 0.00 93 1000.3
20190117044537 24 191 4.0 13.0 0.00 0.00 0.00 92 1000.1
20190117043055 24 166 3.0 11.0 0.00 0.00 0.00 92 1000.0
20190117041531 24 204 4.0 12.0 0.00 0.00 0.00 92 1000.0
20190117040008 24 167 8.0 15.0 0.00 0.00 0.00 92 1000.0
20190117034512 24 198 6.0 14.0 0.00 0.00 0.00 92 999.9
20190117033017 24 166 4.0 14.0 0.00 0.00 0.00 92 1000.0
20190117031524 24 181 5.0 14.0 0.00 0.00 0.00 92 1000.0
20190117030015 24 174 6.0 14.0 0.00 0.00 0.00 92 1000.0
20190117024520 24 167 6.0 12.0 0.00 0.00 0.00 91 1000.2
20190117023003 25 177 6.0 15.0 0.00 0.00 0.00 91 1000.1
20190117020242 24 188 5.0 12.0 0.00 0.00 0.00 91 1000.0
20190117014634 24 160 6.0 13.0 0.00 0.00 0.00 91 999.9
20190117013205 24 185 4.0 19.0 0.00 0.00 0.00 91 1000.0
20190117011623 24 156 7.0 15.0 0.00 0.00 0.00 91 999.9
20190117010147 24 186 7.0 15.0 0.00 0.00 0.00 91 1000.0
20190117004637 24 166 7.0 19.0 0.00 0.00 0.00 91 1000.0
20190117003158 24 174 7.0 16.0 0.00 0.00 0.00 91 999.9
20190117001627 24 166 8.0 15.0 0.00 0.00 0.00 90 1000.0
20190117000117 24 156 8.0 19.0 0.00 0.00 0.00 89 1000.1
20190116234619 25 170 7.0 15.0 0.00 0.00 0.00 88 1000.1
20190116233112 25 169 4.0 14.0 0.00 0.00 0.00 87 1000.2
20190116231633 25 170 7.0 15.0 0.00 0.00 0.00 86 1000.3
20190116230238 25 164 5.0 15.0 0.00 0.00 0.00 85 1000.3
20190116224643 25 179 8.0 18.0 0.00 0.00 0.00 85 1000.3
20190116223109 25 188 8.0 18.0 0.00 0.00 0.00 85 1000.4
20190116221633 25 171 8.0 17.0 0.00 0.00 0.00 84 1000.2
20190116220126 25 182 8.0 15.0 0.00 0.00 0.00 83 1000.0
20190116214553 25 168 7.0 19.0 0.00 0.00 0.00 82 1000.0
20190116213109 26 198 9.0 17.0 0.00 0.00 0.00 81 1000.2
20190116211544 26 195 8.0 20.0 0.00 0.00 0.00 80 1000.0
20190116210041 27 175 6.0 16.0 0.00 0.00 0.00 80 1000.5
20190116204537 27 218 8.0 16.0 0.00 0.00 0.00 82 1000.3
20190116203035 26 190 7.0 21.0 0.00 0.00 0.00 83 1000.6
20190116201558 27 174 10.0 15.0 0.00 0.00 0.00 80 1000.2
20190116200049 27 191 7.0 21.0 0.00 0.00 0.00 80 1000.5
20190116194527 27 168 7.0 17.0 0.00 0.00 0.00 78 1000.7
20190116193030 26 199 8.0 18.0 0.00 0.00 0.00 79 1000.7
20190116191519 26 181 8.0 18.0 0.00 0.00 0.00 78 1000.6
20190116190059 26 155 8.0 15.0 0.00 0.00 0.00 77 1000.8
20190116184516 26 161 9.0 18.0 0.00 0.00 0.00 77 1000.7
20190116183041 26 174 11.0 22.0 0.00 0.00 0.00 76 1000.9
20190116181517 26 168 9.0 22.0 0.00 0.00 0.00 77 1000.8
20190116180012 26 195 9.0 20.0 0.00 0.00 0.00 76 1001.1
20190116174531 26 143 9.0 20.0 0.00 0.00 0.00 76 1000.9
20190116173020 26 164 9.0 17.0 0.00 0.00 0.00 77 1000.9
20190116171511 26 166 9.0 20.0 0.00 0.00 0.00 77 1001.3
20190116170009 26 136 9.0 18.0 0.00 0.00 0.00 77 1001.6
20190116164750 26 175 9.0 16.0 0.00 0.00 0.00 77 1002.2
20190116163154 26 152 7.0 17.0 0.00 0.00 0.00 77 1002.3
20190116161620 26 171 9.0 18.0 0.00 0.00 0.00 77 1002.7
20190116160143 26 156 9.0 17.0 0.00 0.00 0.00 77 1002.6
20190116154716 25 177 6.0 15.0 0.00 0.00 0.00 78 1003.4
20190116153309 25 131 7.0 15.0 0.00 0.00 0.00 79 1003.3
20190116151601 25 159 9.0 16.0 0.00 0.00 0.00 80 1003.6
20190116150119 25 166 8.0 15.0 0.00 0.00 0.00 81 1003.8
20190116144638 25 137 9.0 18.0 0.00 0.00 0.00 82 1004.1
20190116143118 26 189 11.0 18.0 0.00 0.00 0.00 83 1004.5
20190116141716 26 168 9.0 21.0 0.00 0.00 0.00 84 1004.7
20190116140050 26 121 8.0 14.0 0.00 0.00 0.00 85 1005.2
20190116134632 26 112 9.0 21.0 0.00 0.00 0.00 85 1005.4
20190116133053 26 154 10.0 19.0 0.00 0.00 0.00 84 1005.6
20190116131553 27 165 7.0 14.0 0.00 0.00 0.00 85 1006.1
20190116130129 27 198 7.0 16.0 0.00 0.00 0.00 85 1006.3
20190116124538 27 149 11.0 20.0 0.00 0.00 0.00 85 1006.1
20190116123055 27 160 8.0 18.0 0.00 0.00 0.00 85 1006.2
20190116121536 27 183 7.0 21.0 0.00 0.00 0.00 86 1006.5
20190116120114 27 155 9.0 18.0 0.00 0.00 0.00 87 1006.6
20190116114530 27 195 5.0 14.0 0.00 0.00 0.00 89 1006.9
20190116113147 27 147 6.0 17.0 0.00 0.00 0.00 90 1007.1
20190116111542 27 165 6.0 15.0 0.00 0.00 0.00 91 1007.0
20190116110036 26 165 5.0 14.0 0.00 0.00 0.00 91 1007.2
20190116104547 26 162 7.0 16.0 0.00 0.00 0.00 91 1007.5
20190116103110 26 129 5.0 15.0 0.00 0.00 0.00 92 1007.5
20190116101527 26 145 7.0 16.0 0.00 0.00 0.00 92 1007.6
20190116100025 26 168 7.0 16.0 0.00 0.00 0.00 91 1007.6